Location: Paris
(48.6709°N, 2.3750°E)
Time: 06:33:51
(UTC+02:00)

YUBILEINY - Pass Details

Date: 04 July 2022
Orbit: 1478 x 1509 km, 82.5° (Epoch: 17 August)

Event Time Altitude Azimuth Distance (km) Brightness Sun altitude
Rises 03:24:34 0° 351° (N) 4,655 ? -15.7°
Reaches altitude 10° 03:28:54 10° 10° (N) 3,666 ? -15.4°
Maximum altitude 03:34:30 18° 51° (NE) 3,072 ? -15.1°
Drops below altitude 10° 03:40:03 10° 91° (E) 3,641 ? -14.7°
Sets 03:44:16 0° 109° (ESE) 4,611 ? -14.4°
